Change the Weather History Date:

Tuesday, March 19, 2013

  Actual Average Record
Temperature  
Mean Temperature 24 °F 40 °F  
Max Temperature 32 °F 50 °F 75 °F (1976)
Min Temperature 16 °F 30 °F 5 °F (1965)
Degree Days  
Heating Degree Days 41 25  
Month to date heating degree days 684 556  
Since 1 July heating degree days 5370 5506  
Cooling Degree Days 0 0  
Month to date cooling degree days 0 0  
Year to date cooling degree days 0 0  
Moisture  
Dew Point 12 °F    
Average Humidity 59    
Maximum Humidity 69    
Minimum Humidity 49    
Precipitation  
Precipitation 0.00 in 0.07 in 1.07 in (1982)
Month to date precipitation 2.32 1.39  
Year to date precipitation 4.77 3.55  
Sea Level Pressure  
Sea Level Pressure 30.14 in    
Wind  
Wind Speed 16 mph (WNW)    
Max Wind Speed 23 mph    
Max Gust Speed 31 mph    
Visibility 10 miles    
Events      
T = Trace of Precipitation, MM = Missing Value Source: NWS Daily Summary

Daily Weather History Graph

Daily Weather History Graph

Search for Another Location

Airport or City:

Trip Planner

Search our weather history database for the weather conditions in past years. The results will help you decide how hot, cold, wet, or windy it might be!

Date:

Astronomy

Mar. 19, 2013 Rise Set
Actual Time 7:10 AM CDT 7:17 PM CDT
Civil Twilight 6:43 AM CDT 7:45 PM CDT
Nautical Twilight 6:10 AM CDT 8:17 PM CDT
Astronomical Twilight 5:37 AM CDT 8:50 PM CDT
Moon 11:56 AM CDT (3/19) 2:09 AM CDT (3/19)
Length of Visible Light 13h 02m
Length of Day
12h 06m
Waxing Crescent, 50% of the Moon is Illuminated
Mar 19
Waxing Crescent
Mar 19
First Quarter
Mar 27
Full
Apr 2
Last Quarter
Apr 10
New

Hourly Weather History & Observations

Time (CDT) Temp. Windchill Dew Point Humidity Pressure Visibility Wind Dir Wind Speed Gust Speed Precip Events Conditions
12:52 AM 19.0 °F 5.0 °F 8.1 °F 62% 29.96 in 10.0 mi WNW 15.0 mph 20.7 mph N/A   Clear
1:52 AM 18.0 °F 3.1 °F 8.1 °F 65% 29.99 in 10.0 mi West 16.1 mph - N/A   Clear
2:52 AM 17.1 °F 2.5 °F 9.0 °F 71% 30.01 in 10.0 mi West 15.0 mph - N/A   Clear
3:52 AM 17.1 °F 0.6 °F 9.0 °F 71% 30.02 in 10.0 mi West 19.6 mph - N/A   Clear
4:52 AM 16.0 °F -0.4 °F 7.0 °F 68% 30.04 in 10.0 mi WNW 18.4 mph 25.3 mph N/A   Clear
5:52 AM 16.0 °F 1.7 °F 7.0 °F 68% 30.06 in 10.0 mi WNW 13.8 mph - N/A   Clear
6:52 AM 16.0 °F -0.9 °F 6.1 °F 65% 30.08 in 10.0 mi West 19.6 mph 26.5 mph N/A   Clear
7:52 AM 16.0 °F 1.1 °F 6.1 °F 65% 30.10 in 10.0 mi WNW 15.0 mph 21.9 mph N/A   Clear
8:52 AM 18.0 °F 1.7 °F 6.1 °F 60% 30.11 in 10.0 mi WNW 19.6 mph 24.2 mph N/A   Clear
9:52 AM 19.9 °F 3.5 °F 7.0 °F 57% 30.15 in 10.0 mi WNW 21.9 mph 28.8 mph N/A   Clear
10:52 AM 21.9 °F 8.2 °F 9.0 °F 58% 30.18 in 10.0 mi WNW 16.1 mph - N/A   Clear
11:52 AM 24.1 °F 10.6 °F 10.0 °F 55% 30.19 in 10.0 mi WNW 17.3 mph 27.6 mph N/A   Clear
12:52 PM 27.0 °F 14.3 °F 10.9 °F 51% 30.19 in 10.0 mi WNW 17.3 mph 26.5 mph N/A   Clear
1:52 PM 28.9 °F 16.1 °F 12.0 °F 49% 30.19 in 10.0 mi West 19.6 mph 26.5 mph N/A   Clear
2:52 PM 30.0 °F 20.0 °F 14.0 °F 51% 30.19 in 10.0 mi West 12.7 mph 25.3 mph N/A   Partly Cloudy
3:52 PM 32.0 °F 20.5 °F 17.1 °F 54% 30.20 in 10.0 mi West 18.4 mph 26.5 mph N/A   Mostly Cloudy
4:52 PM 32.0 °F 20.1 °F 16.0 °F 52% 30.20 in 10.0 mi West 19.6 mph 26.5 mph N/A   Scattered Clouds
5:52 PM 32.0 °F 21.2 °F 17.1 °F 54% 30.20 in 10.0 mi West 16.1 mph - N/A   Scattered Clouds
6:52 PM 30.9 °F 21.2 °F 19.9 °F 64% 30.20 in 10.0 mi West 12.7 mph - N/A   Clear
7:52 PM 28.9 °F 20.4 °F 18.0 °F 64% 30.21 in 10.0 mi WNW 9.2 mph - N/A   Clear
8:52 PM 28.9 °F 21.1 °F 19.0 °F 67% 30.21 in 10.0 mi NW 8.1 mph - N/A   Partly Cloudy
9:52 PM 28.0 °F 17.5 °F 18.0 °F 66% 30.22 in 10.0 mi NW 12.7 mph 19.6 mph N/A   Overcast
10:52 PM 28.0 °F 18.1 °F 17.1 °F 63% 30.22 in 10.0 mi NW 11.5 mph - N/A   Overcast
11:52 PM 26.1 °F 12.7 °F 18.0 °F 71% 30.22 in 10.0 mi NNW 18.4 mph 27.6 mph N/A   Partly Cloudy